Powrót do katalogu

YUNYAO-1 47

AktywnyPogodaSSO
NORAD 63348·PAYLOAD·🇨🇳 China

Wystrzelony Mar 21, 2025 z Jiuquan Satellite Launch Center

Loading…

Następne Przeloty (najbliższe 24 godziny)

TLE

ŚwieżeSource: Space-Track

Epoka: Sep 14, 2026, 22:22 UTC

1 63348U 25059E   26257.93232007  .00003088  00000-0  18507-3 0  9996
2 63348  97.6124  78.9190 0015058 205.5891 154.4596 15.11643747 81853

Śledź YUNYAO-1 47 w czasie rzeczywistym z AllMySat

Download on the App Store